Regional Weather Roundup
Issued by NWS

Home | Current Version | Previous Version | Text Only | Print | Product List | Glossary Off
Versions: 1 2 3 4 5 6 7 8 9 10 11 12 13 14 15 16 17 18 19 20 21 22 23 24 25 26 27 28 29 30 31 32 33 34 35 36 37 38 39 40 41 42 43 44 45 46 47 48 49 50

218
ASUS43 KFSD 260410
RWRSD

WEATHER ROUNDUP FOR SOUTH DAKOTA
NATIONAL WEATHER SERVICE SIOUX FALLS SD
1100 PM CDT THU AUG 25 2016

NOTE: "FAIR" INDICATES FEW OR NO CLOUDS BELOW 12,000 FEET WITH NO
SIGNIFICANT WEATHER AND/OR OBSTRUCTIONS TO VISIBILITY.


SDZ001>005-009-010-012>017-260500-
NORTHWEST AND NORTH CENTRAL SOUTH DAKOTA

CITY           SKY/WX    TMP DP  RH WIND       PRES   REMARKS
BUFFALO          N/A     58  39  49 SE5       30.12F
FAITH            N/A     54  45  71 SE12      30.19S
MOBRIDGE       CLEAR     56  48  74 SE5       30.14S
$$

SDZ012>016-024>037-041>051-057-063-072>074-260500-
SOUTHWEST AND SOUTH CENTRAL SOUTH DAKOTA

CITY           SKY/WX    TMP DP  RH WIND       PRES   REMARKS
RAPID CTY ARPT CLEAR     50  44  80 CALM      30.19F
PIERRE         CLEAR     53  47  79 SE3       30.18R
CUSTER         CLEAR     47  45  93 CALM      30.26F
ELLSWORTH AFB  CLEAR     59  46  62 SW2       30.18F
PHILIP         CLEAR     53  46  77 E6        30.19R
PINE RIDGE     CLOUDY    54  50  86 E6        30.21F
WINNER         FAIR      57  47  69 E5        30.20S
$$

SDZ004>011-016>023-039-040-260500-
NORTHEAST SOUTH DAKOTA

CITY           SKY/WX    TMP DP  RH WIND       PRES   REMARKS
ABERDEEN       CLOUDY    55  51  86 SW5       30.15R
WATERTOWN      CLEAR     55  51  86 CALM      30.16R
BROOKINGS      CLEAR     55  51  86 SW3       30.17R
SISSETON         N/A     58  53  84 W7        30.12R
$$

SDZ017-020-022-023-036>040-048>070-260500-
SOUTHEAST SOUTH DAKOTA

CITY           SKY/WX    TMP DP  RH WIND       PRES   REMARKS
SIOUX FALLS    CLEAR     59  54  83 CALM      30.18R
HURON          CLEAR     53  49  86 CALM      30.16S
CHAMBERLAIN    CLEAR     62  49  63 CALM      30.19R
MITCHELL       CLEAR     57  52  83 CALM      30.18R
YANKTON        CLEAR     59  52  77 SW3       30.17R
$$

ABBREVIATIONS USED IN REMARKS
   TC - TEMPERATURE IN CELSIUS
  WCI - WIND CHILL INDEX
   HX - HEAT INDEX
  VSB - VISIBILITY





USA.gov is the U.S. government's official web portal to all federal, state and local government web resources and services.